Regional Weather Roundup
Issued by NWS Cleveland, OH

Home | Current Version | Previous Version | Text Only | Print | Product List | Glossary Off
Versions: 1 2 3 4 5 6 7 8 9 10 11 12 13 14 15 16 17 18 19 20 21 22 23 24 25 26 27 28 29 30 31 32 33 34 35 36 37 38 39 40 41 42 43 44 45 46 47 48 49 50

000
ASUS41 KCLE 030312
RWRCLE
OHIO REGIONAL WEATHER ROUNDUP
NATIONAL WEATHER SERVICE WILMINGTON, OH
1000 PM EST FRI DEC 02 2016

NOTE: "FAIR" INDICATES FEW OR NO CLOUDS BELOW 12,000 FEET WITH NO
SIGNIFICANT WEATHER AND/OR OBSTRUCTIONS TO VISIBILITY.

OHZ001>008-015>018-024>027-034-035-043-044-030400-
   NORTHWEST OHIO

CITY           SKY/WX    TMP DP  RH WIND       PRES   REMARKS
DEFIANCE       FAIR      34  26  72 W5        30.28R WCI  30
FINDLAY        CLOUDY    35  27  72 W9        30.25R WCI  28
TOLEDO EXPRESS CLOUDY    37  29  72 W9        30.25R
TOLEDO EXEC    CLOUDY    38  31  76 W7        30.25R
LIMA           CLOUDY    35  30  82 NW8       30.27R WCI  29
$$

OHZ009>014-019>023-028>033-038-089-030400-
   NORTHEAST OHIO

CITY           SKY/WX    TMP DP  RH WIND       PRES   REMARKS
CLE-HOPKINS    CLOUDY    39  29  67 NW16      30.22R
CLE-LAKEFRONT  CLOUDY    40  31  70 W22       30.19R
CUY CO. ARPT   CLOUDY    39  32  75 NW14G23   30.18R
LORAIN-ELYRIA  CLOUDY    37  28  70 NW14      30.22R
ASHTABULA      CLOUDY    38  31  76 W13G22    30.15R
AKRON-CANTON   MOCLDY    36  27  69 W9        30.19R
WOOSTER        MOCLDY    33  28  81 W8        30.21R WCI  26
MANSFIELD      FAIR      33  30  88 W8        30.22R WCI  26
YOUNGSTOWN     CLOUDY    36  31  82 W9        30.15R
$$

OHZ042-051>053-060>062-070>072-077>081-030400-
  SOUTHWEST OHIO

CITY           SKY/WX    TMP DP  RH WIND       PRES   REMARKS
CINC-COVINGTON CLOUDY    39  32  76 CALM      30.30R
CINC-LUNKEN    CLOUDY    41  32  70 NW3       30.33R
HAMILTON       CLOUDY    38  33  82 NW6       30.32R
DAYTON         CLOUDY    36  31  82 W10       30.29R
WRIGHT-PAT AFB CLOUDY    38  31  77 W6        30.29R
DAYTON GENERAL CLOUDY    37  31  78 W6        30.28S
WILMINGTON     CLOUDY    37  30  75 W7        30.28R
$$

OHZ036-037-039>041-045>050-054>059-063>069-073>076-082>088-030400-
  CENTRAL AND SOUTHEAST OHIO

CITY           SKY/WX    TMP DP  RH WIND       PRES   REMARKS
COLUMBUS       CLOUDY    38  32  79 W10       30.26R
OSU AIRPORT    CLOUDY    38  32  79 W12       30.26R
BOLTON FIELD   CLOUDY    37  31  79 W5        30.27R
RICKENBACK AFB CLOUDY    37  31  78 W9        30.27R
NEWARK         CLOUDY    38  30  73 W8        30.25R
MARION         MOCLDY    36  30  79 NW12      30.25R
LANCASTER      CLOUDY    38  30  73 W8        30.27R
ZANESVILLE     CLOUDY    38  30  73 W8        30.24R
NEW PHILLY     CLOUDY    37  32  82 W9        30.22R
$$



USA.gov is the U.S. government's official web portal to all federal, state and local government web resources and services.